Location: American Medical Response
(33.3472°N, 96.5511°W)
Time: 07:13:25
(UTC+00:00)

SL-4 R/B - Pass Details

Date: 11 July 2022
Orbit: 425 x 653 km, 51.6° (Epoch: 15 August)

Event Time Altitude Azimuth Distance (km) Brightness Sun altitude
Rises 03:49:52 0° 254° (WSW) 2,374 5.6 -22.4°
Reaches altitude 10° 03:52:14 10° 270° (W) 1,509 4.8 -22.8°
Maximum altitude 03:54:59 23° 325° (NW) 954 4.0 -23.1°
Drops below altitude 10° 03:57:48 10° 20° (NNE) 1,539 4.7 -23.5°
Sets 04:00:15 0° 36° (NE) 2,434 5.5 -23.8°
